User: anonymous   Login
Location: Kott?ru
(16.6209°N, 80.6208°E)
Time: 00:43:36
(UTC+00:00)
Language:

RS-15 - Orbit

View from above orbital plane
View from above orbital plane
View from above satellite
View from above satellite

Ground track
Ground track

The orbit data is extracted from the following two-line orbital elements,

1 23439U 94085A   24201.57431822 -.00000051  00000-0 -24735-3 0  9990
2 23439  64.8203 351.3917 0149415 137.6273 223.6303 11.27577742217246
Epoch (UTC): 19 July 2024 13:47:01
Eccentricity: 0.0149415
inclination: 64.8203°
perigee height: 1897 km
apogee height: 2148 km
right ascension of ascending node: 351.3917°
argument of perigee: 137.6273°
revolutions per day: 11.27577742
mean anomaly at epoch: 223.6303°
orbit number at epoch: 21724

The dashed part of the orbit path shows where the satellite is in the earth's shadow,  

DLR